Wind_Speed
24 24 23 23 22 22 22 21 21 21 21 20 20 20 20 20 20 19 19 19 19 19 18 18 17 16 16 15 15 15 15 15 14 14 14 14 15 15 15 15 16 16 17 17 17 18 18 18 19 19 20 20 21 22 22 23 23 23 22 22 23 23 22 22 23 21 21 21 21 21 21 20 20 18 16 15 15 15 18 22 20 19 21 21 20 18 17 17
26 25 25 25 24 24 24 24 23 23 23 23 22 22 22 22 22 22 22 22 21 21 20 19 18 17 17 17 17 16 17 17 17 17 17 17 18 18 18 18 19 19 20 20 20 20 21 21 21 22 22 22 23 24 25 25 25 25 23 22 23 22 21 22 22 22 22 23 24 23 23 22 22 19 16 15 15 16 18 20 20 20 22 23 22 20 19 18
28 27 27 27 26 26 26 26 25 25 25 25 25 25 24 24 24 24 24 24 23 23 22 20 19 19 18 18 18 18 19 19 19 19 19 20 20 20 21 21 21 22 22 23 23 23 23 23 23 24 24 25 25 27 28 28 27 26 24 23 23 21 21 22 22 24 24 24 25 24 23 23 23 21 18 15 15 18 20 19 19 19 21 23 24 23 22 21
30 29 29 29 28 28 28 28 28 28 27 27 27 27 27 27 26 26 26 25 24 23 23 22 21 20 20 20 20 20 21 21 22 22 22 22 22 23 23 24 24 24 24 25 25 25 25 25 26 26 27 28 28 29 30 29 27 25 24 23 22 21 22 23 24 25 26 26 25 25 23 22 23 22 20 18 16 19 22 22 20 19 21 23 23 25 26 25
32 32 31 31 31 31 31 30 30 30 30 29 29 29 28 28 27 27 26 25 24 24 23 22 22 21 21 21 22 22 23 24 24 24 24 24 24 25 25 25 26 26 26 26 26 26 27 27 28 28 29 30 30 31 30 29 26 23 23 23 22 21 23 25 26 27 28 27 26 25 24 22 23 24 22 21 19 19 21 23 22 21 21 22 22 24 26 27
35 35 34 34 34 33 33 33 32 32 31 31 30 30 29 28 27 26 26 25 24 24 23 23 23 23 23 23 24 24 25 26 25 26 27 26 26 27 27 28 28 28 28 29 29 29 30 30 30 30 31 32 31 31 29 27 25 22 22 22 22 22 23 26 28 28 29 28 27 26 24 23 23 23 23 24 22 20 20 22 24 23 22 22 22 24 25 26
37 37 36 36 35 35 34 34 33 33 32 31 31 30 29 28 27 27 26 26 25 25 25 25 25 25 25 25 26 27 29 30 28 29 30 29 29 30 30 31 31 31 31 32 32 32 33 33 32 32 31 31 30 29 27 25 23 21 22 22 23 24 25 27 28 29 30 29 28 27 25 25 25 22 23 25 24 23 22 23 24 25 25 25 24 25 26 27
37 37 36 36 35 35 34 33 33 32 32 31 31 30 29 29 28 28 28 27 28 27 27 27 28 28 28 28 29 30 32 33 32 32 32 32 32 32 33 33 33 34 34 34 34 34 34 33 33 31 30 28 27 26 25 24 23 22 23 23 24 26 27 28 29 30 30 29 30 28 26 27 27 24 24 26 25 24 24 24 25 25 27 29 29 30 29 28
38 38 37 36 36 35 34 33 33 33 32 32 32 31 31 31 31 30 30 30 30 30 30 30 31 31 31 31 31 32 34 34 33 33 32 32 32 32 32 32 33 33 34 34 33 32 32 31 30 28 26 25 24 24 24 24 25 25 25 26 27 28 29 30 31 31 30 29 30 29 26 28 29 26 26 28 27 25 25 25 26 27 27 31 33 34 33 31
41 40 39 38 37 37 36 35 35 35 34 34 34 34 34 34 33 33 33 33 33 33 33 33 33 33 33 32 30 31 33 32 31 31 31 31 30 29 29 30 30 30 31 31 30 29 28 28 27 25 24 23 23 25 26 26 27 27 28 29 30 30 30 32 33 32 31 30 32 31 27 29 30 27 26 28 28 26 25 26 28 29 30 31 33 35 35 34
42 42 41 41 40 39 38 38 38 37 37 37 37 37 36 36 36 36 36 36 36 36 36 35 35 34 33 32 29 30 31 30 30 31 31 31 30 29 29 29 29 29 28 28 27 26 26 27 27 26 25 25 25 27 28 29 30 31 32 32 32 32 31 33 35 33 33 33 34 34 30 28 29 29 26 27 29 28 27 27 30 32 33 34 34 35 35 34
41 42 42 41 41 41 41 40 40 40 40 39 39 39 39 39 38 38 38 38 37 37 36 36 35 34 32 30 29 30 30 30 31 32 33 33 32 31 31 30 30 29 29 28 27 27 27 28 28 29 28 28 29 31 32 32 33 33 34 33 32 32 32 34 36 35 34 34 34 36 34 29 28 29 28 27 28 30 29 29 31 34 36 36 35 35 35 34
42 41 41 41 41 41 41 41 41 41 41 40 40 40 40 39 39 39 38 38 38 37 36 35 34 34 32 30 31 32 32 32 33 34 35 35 34 34 33 32 32 31 31 30 30 30 30 30 32 32 32 33 33 33 34 34 34 34 35 36 34 33 33 33 35 35 34 34 35 37 37 32 28 28 29 28 28 29 30 30 33 35 36 37 36 36 35 34
44 43 42 41 41 41 41 41 40 40 40 40 40 39 39 39 39 38 38 38 37 37 36 36 36 35 34 33 33 35 34 34 35 35 36 36 36 36 35 34 34 34 33 33 33 33 34 34 35 36 35 35 35 35 35 35 35 35 37 38 37 36 33 31 34 35 35 35 36 37 38 35 29 27 27 28 29 31 30 30 33 35 35 35 35 35 35 34
44 44 43 43 42 42 42 41 41 41 40 40 40 40 39 39 39 39 39 39 39 39 39 38 38 38 38 36 36 36 36 36 36 36 36 36 36 36 36 36 35 35 36 36 36 36 36 36 37 37 36 36 35 36 36 36 36 37 39 40 39 38 35 32 32 34 36 36 37 37 38 36 31 29 28 27 30 32 31 31 33 33 32 32 32 33 34 33
42 42 43 43 43 43 43 42 42 42 42 42 42 41 41 41 41 41 41 41 41 41 41 41 40 40 40 38 37 37 36 37 36 36 37 36 36 36 36 36 36 36 36 36 37 37 37 37 38 38 37 36 36 37 38 38 37 37 40 41 39 39 38 35 31 32 35 37 38 38 38 36 33 32 31 30 31 32 31 32 32 31 31 30 31 32 32 32
40 40 40 40 40 40 41 41 42 42 42 42 42 42 42 42 42 42 42 42 42 41 42 41 41 41 40 38 37 37 37 37 36 37 37 37 37 36 37 37 37 37 37 37 38 38 39 39 39 39 38 37 37 38 40 39 37 38 40 40 40 39 39 37 33 32 34 37 38 38 38 38 36 35 35 35 35 34 33 34 33 32 32 32 32 32 32 32
41 40 40 40 39 39 40 40 40 40 40 40 40 41 41 41 41 41 41 40 40 40 41 40 39 40 39 37 37 37 37 36 36 37 37 37 37 37 37 38 38 38 38 39 39 40 41 41 41 40 38 37 38 40 41 40 38 39 39 39 39 39 38 37 35 35 36 37 38 38 39 39 39 38 37 38 38 37 36 36 35 34 33 33 33 33 33 32
42 42 41 41 41 40 40 40 40 40 39 39 39 40 40 40 40 40 40 40 40 40 40 40 39 39 39 38 38 38 37 37 38 38 38 38 38 39 39 40 40 40 40 40 41 41 42 42 42 40 37 37 39 40 40 40 40 40 39 40 39 39 38 37 37 38 38 38 38 38 39 39 39 38 38 38 38 38 38 38 38 36 35 34 34 34 34 34
44 43 42 42 42 42 41 41 41 41 40 40 41 41 41 41 42 41 41 41 41 41 42 41 40 40 40 40 40 40 39 39 39 38 39 39 39 40 40 40 40 40 40 41 42 42 42 43 42 38 37 39 40 39 39 40 40 40 40 40 40 39 38 37 39 40 40 41 40 40 40 40 39 39 38 38 39 39 39 40 40 39 37 36 35 34 34 34
45 44 44 43 43 43 43 42 42 41 41 41 41 42 42 42 43 43 43 42 42 42 42 42 42 41 40 41 42 41 40 40 38 37 37 38 39 40 40 40 40 40 40 41 42 42 42 43 40 37 39 40 40 39 39 39 40 41 41 41 41 40 39 39 40 41 42 43 43 43 42 40 40 40 39 39 39 39 39 39 39 38 38 38 37 35 34 34
47 46 45 45 44 44 44 43 43 43 42 42 42 42 43 43 44 44 44 43 42 43 43 42 42 42 40 42 43 42 42 41 39 38 38 38 38 39 40 40 39 40 41 41 41 41 43 41 38 38 40 40 40 39 39 39 40 40 41 41 40 39 40 41 40 41 43 43 43 43 42 40 40 39 38 38 38 38 37 37 37 36 36 37 36 36 35 35
49 48 47 47 46 46 45 45 44 44 43 43 43 43 44 45 45 45 46 46 43 43 44 43 43 44 43 43 43 43 43 42 41 40 39 40 40 40 41 40 40 40 41 41 41 43 43 38 37 38 39 39 39 38 37 37 38 39 39 39 39 40 41 41 40 41 42 42 42 42 41 40 39 39 38 37 37 37 36 35 35 36 36 35 35 35 35 35
51 50 50 50 49 48 48 46 46 45 45 45 45 45 45 46 47 47 48 49 47 44 44 45 45 46 45 45 45 44 44 43 43 43 42 42 42 42 41 40 41 39 38 39 40 41 38 34 36 37 36 37 37 36 36 36 37 37 38 38 39 40 41 41 41 40 40 41 42 42 42 41 39 38 37 37 38 38 37 36 36 36 36 36 35 35 35 35
53 53 53 52 52 51 50 49 48 47 47 46 46 46 47 47 48 49 49 51 51 46 45 46 48 48 47 46 46 45 44 43 42 42 42 42 42 41 40 40 40 38 36 37 38 38 34 33 37 37 36 36 36 35 36 36 37 36 37 38 39 40 40 41 42 42 41 42 41 42 43 43 42 40 37 37 38 38 38 38 37 37 37 37 36 36 35 34
56 56 56 55 55 53 52 51 50 50 49 49 50 49 49 49 50 50 51 53 53 50 47 47 48 49 47 46 46 45 45 43 41 41 41 40 40 40 40 39 39 38 37 37 38 38 35 36 38 38 38 38 37 37 37 38 37 37 37 38 39 40 40 41 41 42 43 43 43 42 42 44 46 43 40 41 41 39 39 38 38 38 38 38 38 36 35 34
59 59 59 58 58 56 54 53 52 52 52 52 52 52 52 52 52 52 52 54 55 52 50 50 49 49 48 47 47 45 45 43 41 40 39 39 39 39 39 39 38 38 38 38 39 39 38 38 38 38 38 38 38 38 38 38 38 38 37 37 38 39 40 41 41 43 43 44 45 42 41 46 50 45 43 45 44 42 41 40 40 40 40 39 39 37 35 34
61 61 62 61 60 59 57 55 54 54 54 55 54 54 55 55 55 54 53 55 57 55 53 52 50 49 48 47 47 45 45 43 40 39 38 38 38 37 38 38 38 39 39 39 39 39 38 38 38 37 37 36 37 37 37 38 38 38 37 38 38 38 39 40 41 42 43 45 46 42 40 47 51 47 46 46 45 44 44 43 42 42 42 41 40 39 37 37
63 63 64 64 63 61 59 58 56 56 56 57 57 57 58 57 56 54 53 56 58 57 54 52 51 51 49 47 46 44 43 42 40 39 38 38 38 38 38 39 39 39 39 39 39 38 38 38 37 37 36 36 36 36 37 37 38 37 38 38 39 39 39 40 41 41 42 46 45 40 40 45 49 49 47 46 45 45 45 44 44 44 43 43 43 44 42 42
62 62 63 63 62 61 60 60 59 58 58 58 58 59 58 57 55 53 55 58 57 55 54 52 50 49 47 45 44 42 42 41 40 40 39 39 39 39 39 40 39 39 39 39 38 38 38 37 37 37 36 37 36 36 36 36 36 36 37 38 38 39 40 40 42 41 42 46 43 39 41 44 48 50 49 47 47 47 46 46 46 45 44 45 46 47 47 46
54 55 56 55 56 57 59 59 58 57 57 57 58 58 56 54 52 53 55 54 50 49 49 47 46 44 43 43 42 41 40 40 40 40 40 40 40 40 39 39 39 39 39 39 38 38 39 38 37 37 37 37 36 36 35 35 35 36 37 37 38 39 40 41 42 42 43 46 44 43 45 47 49 50 50 50 49 48 48 47 47 46 47 47 48 49 50 50
45 46 46 46 46 48 50 52 53 53 53 53 54 54 52 50 51 53 51 46 43 43 42 41 41 40 40 40 40 40 39 39 39 39 39 40 39 39 39 39 39 39 40 40 40 40 40 40 39 38 38 37 36 36 35 36 38 38 38 38 39 41 42 44 44 44 46 47 46 48 49 51 52 51 50 50 49 49 49 48 48 49 49 50 51 52 53 53
42 42 43 44 43 43 43 45 47 48 48 50 51 52 51 51 52 52 47 41 40 41 40 40 41 40 40 40 40 40 40 39 39 39 40 40 39 39 39 39 39 40 41 42 43 43 42 41 40 39 39 38 38 37 37 39 40 40 39 40 42 43 44 46 47 48 49 49 49 50 52 53 53 51 51 50 49 50 50 50 51 51 52 54 55 55 56 56
46 45 46 47 47 45 44 43 44 44 45 46 47 47 48 52 53 50 45 41 40 42 42 42 42 42 42 41 41 41 40 40 41 41 41 41 40 40 39 39 40 41 42 44 45 44 44 43 42 40 40 40 39 39 40 41 42 43 43 44 45 44 45 47 49 51 51 50 50 52 54 54 53 51 51 51 51 52 52 52 54 54 56 57 57 57 57 57
49 48 48 48 49 49 48 47 46 45 45 45 45 46 48 51 51 48 45 43 43 44 45 44 44 44 44 44 43 43 42 42 42 42 43 43 42 41 41 42 42 43 45 45 45 45 47 47 45 43 41 41 41 42 43 44 45 46 46 46 46 45 46 48 50 51 51 52 52 53 55 54 52 51 52 53 54 54 55 56 56 57 57 57 57 56 56 56
51 49 48 48 49 49 49 49 48 48 48 47 48 49 49 50 50 46 45 44 45 45 46 46 46 46 46 45 44 43 43 43 43 44 45 45 45 45 44 44 45 47 48 47 47 48 49 49 47 44 42 42 43 44 45 45 46 47 46 46 46 47 47 50 51 51 52 54 54 52 54 55 53 52 52 53 55 55 56 56 56 56 56 55 56 56 56 56
53 51 51 49 47 47 47 47 47 49 48 45 47 49 49 49 49 46 44 44 45 46 47 48 48 47 46 46 45 44 44 45 46 47 47 47 48 48 47 47 49 49 48 47 47 48 48 48 47 46 45 45 45 45 45 45 46 46 46 46 46 48 50 51 53 53 54 57 56 53 53 54 54 54 52 52 53 53 54 55 55 55 55 56 56 56 57 57
53 52 51 49 45 43 44 46 49 52 52 49 48 48 49 49 48 45 45 45 45 47 48 48 49 48 48 49 48 47 48 50 50 49 48 48 50 51 50 50 50 48 46 45 45 47 47 48 49 49 48 47 46 45 45 45 45 45 47 47 48 50 51 52 54 55 56 58 58 54 52 53 54 53 52 52 52 52 53 54 54 54 55 56 57 58 59 59
49 49 49 48 46 44 44 46 48 52 55 55 53 51 51 50 49 49 49 49 49 49 49 48 49 49 49 49 49 50 51 51 50 49 49 49 50 52 52 51 49 47 46 46 46 47 48 49 50 50 49 47 47 47 45 44 45 47 49 50 50 51 53 54 55 56 57 59 60 57 55 53 52 53 53 53 52 52 53 55 55 56 56 57 58 58 58 58
48 47 47 48 49 49 49 49 50 52 54 55 55 55 55 55 55 54 54 54 55 55 54 54 54 55 54 54 53 54 54 53 51 50 50 51 52 53 52 51 49 48 48 48 49 49 50 51 52 51 50 49 47 46 45 45 48 50 50 51 52 53 55 56 57 57 58 60 60 60 58 54 51 53 54 54 53 53 54 55 55 55 56 56 57 57 57 57
49 48 48 48 48 49 51 53 54 55 55 54 55 57 57 57 57 56 56 57 59 59 60 60 60 61 61 61 61 59 55 53 51 49 49 51 52 52 50 49 49 49 49 50 51 52 52 52 51 52 52 50 48 47 47 48 50 51 52 53 55 56 57 58 59 57 58 60 61 61 62 57 52 53 55 54 53 54 53 52 52 52 53 55 56 56 57 58
52 52 52 52 49 47 48 51 52 53 54 55 55 56 57 56 55 54 55 57 59 61 61 62 61 61 62 63 62 58 53 50 49 48 49 50 50 48 47 47 49 50 50 51 52 52 50 50 50 51 50 49 49 50 51 51 52 53 55 55 56 58 57 59 60 58 58 61 61 62 63 59 53 51 53 53 52 52 50 49 50 52 53 55 56 57 59 60
58 58 58 58 56 54 51 50 49 50 52 53 52 52 53 54 54 54 55 56 57 58 58 59 60 60 60 59 58 55 52 49 48 47 47 47 46 45 46 48 50 51 53 53 53 51 51 51 52 51 50 50 52 54 54 54 54 55 56 56 57 57 57 58 59 59 60 61 60 61 63 60 54 51 51 51 51 50 50 51 52 53 55 56 57 58 58 59
63 62 61 60 60 60 59 56 53 50 48 48 49 50 51 53 54 54 54 54 53 53 54 54 55 56 57 57 56 55 53 51 49 48 47 47 47 48 50 51 52 54 55 55 54 53 53 54 55 54 54 54 54 55 56 55 54 56 57 56 57 57 57 58 59 60 62 62 59 60 62 59 54 51 50 51 51 50 51 52 52 52 53 55 57 58 58 59
65 65 64 63 63 63 62 61 60 57 53 50 52 53 54 55 55 55 55 55 54 55 55 54 54 55 55 57 58 58 56 53 52 52 52 52 52 52 53 54 54 55 55 55 54 54 54 55 56 56 57 57 56 56 57 56 56 58 58 57 57 57 58 59 60 61 64 62 59 60 61 57 53 53 54 53 52 51 51 51 51 52 53 55 57 59 61 62
67 67 67 67 67 67 65 64 64 64 62 61 61 61 61 62 61 60 61 61 61 61 60 59 59 59 60 59 59 58 56 54 55 55 55 54 54 54 54 54 53 53 54 54 54 55 56 56 56 57 58 58 58 58 59 59 58 59 59 58 57 58 58 59 62 64 63 63 62 60 60 58 55 55 57 56 54 54 55 55 56 58 59 60 61 63 65 65
68 68 68 68 68 67 67 67 67 66 65 65 65 65 65 66 66 67 68 68 66 64 63 62 62 61 60 59 58 57 55 55 55 56 56 55 55 54 54 54 53 53 53 54 55 56 57 58 57 58 59 59 59 60 61 61 60 60 59 58 57 58 59 61 63 63 61 63 64 60 58 60 57 55 56 57 57 58 59 60 62 63 63 63 64 66 67 68
67 68 67 67 67 66 66 65 65 64 62 62 63 65 65 65 66 67 67 67 66 64 63 62 61 59 57 56 56 56 55 55 56 55 55 55 54 54 54 54 55 55 55 56 56 57 58 59 59 59 60 60 61 61 62 62 62 62 60 59 57 58 60 62 63 61 61 64 65 60 58 60 59 56 57 59 60 61 62 63 64 64 64 65 66 67 68 69
67 67 67 67 67 65 64 63 62 62 62 62 64 65 65 65 64 63 63 63 62 61 61 61 58 56 56 55 56 55 54 55 56 55 55 55 55 55 56 56 57 57 57 57 58 59 60 61 60 61 62 61 61 62 62 63 64 63 60 60 59 60 62 62 61 60 61 63 62 60 60 61 60 59 59 60 61 63 63 63 63 63 64 65 66 67 68 69
64 64 63 64 64 63 62 62 62 62 62 63 64 64 63 63 62 60 60 59 59 58 59 59 57 56 56 56 57 57 56 56 57 57 57 58 58 58 58 58 58 58 58 59 60 61 62 62 62 62 62 62 62 61 62 63 64 63 61 61 61 62 61 59 59 60 61 62 61 60 63 63 59 57 59 60 62 63 62 62 62 63 64 66 67 68 68 69
61 61 61 61 61 60 60 60 61 62 62 62 63 61 60 60 58 58 59 59 58 58 58 58 58 58 59 59 58 58 58 58 59 59 59 60 60 60 61 61 61 61 60 61 61 62 62 63 62 62 62 62 61 60 61 62 63 64 64 62 60 59 58 57 58 60 60 62 62 63 64 63 59 58 61 62 62 62 62 62 63 64 66 67 68 69 70 71
62 62 61 61 61 60 60 60 60 62 61 60 59 59 59 58 58 59 61 61 60 60 60 60 60 60 61 61 59 58 58 59 59 59 59 61 61 62 63 63 63 62 61 61 62 62 62 62 61 61 62 61 60 60 60 61 65 66 64 59 55 55 56 57 58 58 59 61 63 64 64 62 60 62 63 62 62 63 63 64 65 66 67 68 69 69 70 71
Wind_Direction
239 240 241 242 244 245 246 248 250 252 254 256 258 260 262 264 266 268 270 272 274 274 274 272 270 266 263 261 260 259 259 260 261 263 264 265 269 271 271 271 273 275 276 277 278 279 281 282 284 285 286 287 288 289 290 289 291 293 293 291 290 292 294 295 296 297 298 299 300 301 304 307 307 308 310 306 304 303 298 296 301 308 306 303 303 307 311 313
242 243 244 246 247 248 250 251 253 254 256 258 260 261 263 265 267 269 271 272 273 272 271 269 267 264 262 261 261 261 261 262 262 263 265 266 268 271 272 273 274 276 277 277 279 280 282 283 284 285 285 286 288 289 289 290 292 292 290 288 288 290 291 293 293 293 295 297 298 300 305 309 309 311 312 311 312 305 295 298 307 309 303 302 303 305 307 307
244 245 246 248 249 251 252 254 255 256 258 259 261 263 265 266 268 270 271 271 271 270 269 267 264 263 262 262 263 263 264 264 264 264 266 268 269 271 272 273 274 276 278 279 280 281 282 283 284 285 286 286 287 288 288 290 292 290 287 285 285 287 288 289 290 290 293 294 296 300 305 309 308 308 308 309 310 303 300 304 309 307 303 301 302 303 303 300
246 247 248 250 251 253 254 256 257 258 259 261 262 264 265 266 267 267 267 267 266 266 265 264 264 263 263 264 265 265 267 267 268 267 267 268 270 271 272 274 275 276 277 278 280 280 282 283 283 285 286 287 287 287 288 290 290 287 285 283 284 287 287 287 288 289 292 293 294 297 302 305 304 304 305 305 304 301 302 307 307 306 304 302 301 300 298 297
248 250 251 252 253 255 256 258 259 260 261 262 263 264 265 265 265 264 264 262 262 261 261 262 263 264 265 266 267 268 269 269 270 271 270 271 272 273 273 274 274 275 276 278 278 279 280 281 282 284 285 286 286 286 287 288 287 284 283 283 285 287 288 288 290 291 292 292 294 297 301 302 300 300 302 301 299 298 300 303 306 306 304 302 299 295 292 291
250 252 253 254 255 256 257 258 259 260 261 262 263 263 263 263 263 262 262 261 261 260 261 262 263 264 266 268 269 270 271 270 271 272 273 273 273 274 275 275 275 276 276 277 278 279 279 280 281 282 283 284 284 284 284 283 281 279 278 280 284 286 287 288 291 292 291 291 293 296 297 296 293 294 297 296 296 298 298 299 303 306 305 301 296 291 288 286
251 252 253 254 255 256 257 257 258 259 259 260 260 260 260 260 260 260 261 261 262 263 264 265 266 267 268 270 272 273 273 273 272 273 274 274 274 274 275 275 276 277 277 278 278 279 280 281 281 281 281 281 281 282 281 278 275 272 273 276 280 283 285 287 288 288 288 290 293 293 294 292 290 291 293 292 294 297 296 296 298 302 303 300 294 288 284 283
250 251 252 253 253 254 255 255 256 256 256 257 257 257 257 258 258 259 260 261 263 264 265 267 268 269 271 272 273 275 275 275 276 275 276 276 275 275 276 276 277 277 278 278 279 280 281 281 281 281 280 279 279 278 277 275 274 272 273 276 279 282 284 285 284 283 286 291 293 293 296 294 292 294 292 289 291 293 294 294 293 295 297 296 293 288 285 284
250 251 251 252 252 253 253 253 253 254 254 255 255 256 257 257 258 259 260 262 263 265 266 267 268 269 271 271 273 274 274 275 277 276 276 276 276 276 277 277 277 278 279 279 280 281 281 281 280 280 278 278 277 276 275 275 275 277 277 279 281 283 285 284 283 284 287 290 290 291 293 291 291 292 291 289 290 290 290 291 289 289 288 288 288 289 290 289
251 252 252 253 253 253 253 253 253 253 254 255 255 256 257 258 259 260 262 263 264 265 266 267 268 269 270 271 272 272 273 275 276 276 276 276 277 278 278 278 277 277 278 279 280 280 280 280 279 278 277 277 276 276 276 277 278 280 281 283 284 285 286 285 285 286 289 290 289 290 290 288 289 290 290 290 290 290 290 289 288 286 283 281 283 287 290 291
252 253 253 254 254 255 255 255 255 255 256 257 257 258 259 260 261 262 263 264 265 266 267 268 268 269 269 270 270 269 271 273 274 275 276 276 277 278 278 278 277 277 277 277 277 278 277 277 278 277 277 277 277 277 278 280 281 282 283 284 285 286 286 286 287 288 290 291 290 290 288 287 289 290 290 290 291 292 291 289 287 285 283 282 283 285 287 290
253 253 254 254 255 256 256 257 257 258 258 259 259 260 261 262 263 264 264 265 266 267 267 268 268 268 267 268 268 267 269 271 273 275 276 276 277 277 276 276 276 276 276 276 275 275 275 276 277 277 278 278 278 279 280 281 282 283 283 283 284 284 285 287 288 290 291 291 291 289 288 287 288 290 291 290 291 291 289 286 283 283 283 284 284 285 286 289
252 253 254 255 255 256 256 257 258 258 259 260 261 261 262 263 264 264 265 266 266 266 267 267 266 266 265 265 266 267 268 269 272 273 275 276 277 276 275 274 274 275 275 275 275 275 275 276 276 277 278 279 280 281 282 283 284 285 285 284 284 282 284 287 288 290 291 291 290 288 287 288 288 290 291 291 289 286 283 281 279 280 282 283 285 286 288 289
251 252 253 254 255 255 256 257 258 258 259 260 260 261 262 263 264 265 265 266 266 266 266 266 266 265 265 265 265 267 268 269 270 272 274 275 276 276 275 275 274 274 274 275 275 276 276 277 277 278 279 280 281 282 283 285 286 286 286 286 286 284 285 287 288 290 290 290 288 287 286 287 289 290 289 290 288 283 280 278 277 279 280 283 286 287 287 286
250 251 252 253 254 255 255 256 258 258 259 260 260 261 262 263 263 264 265 265 266 266 266 266 266 267 267 267 266 267 269 269 270 271 272 273 273 274 274 274 274 274 274 275 276 276 276 277 277 279 280 281 282 284 285 285 285 286 286 285 286 287 287 287 287 289 289 288 287 286 286 288 292 291 288 287 284 281 281 280 278 279 282 284 286 285 284 283
252 252 253 254 255 255 256 257 257 258 259 260 260 261 261 262 263 263 264 265 265 266 267 267 267 268 268 268 268 269 269 269 270 270 271 271 271 272 273 274 274 274 274 275 276 276 277 277 277 279 280 282 284 285 284 283 284 285 284 285 287 288 289 288 288 288 288 288 287 287 288 290 293 292 292 290 286 284 286 285 284 286 288 287 285 283 283 283
252 254 255 256 256 257 258 258 258 259 260 260 261 262 262 262 263 263 264 264 265 266 266 267 268 268 269 269 269 269 268 269 269 270 270 270 271 271 272 273 273 273 274 275 275 276 276 276 277 278 280 283 285 284 282 282 284 283 283 285 287 288 288 290 291 289 288 288 288 289 291 292 293 294 296 295 293 293 292 292 293 293 291 288 286 284 284 283
253 253 254 255 257 258 258 259 259 260 261 261 262 262 262 262 263 263 263 264 264 265 266 266 267 268 268 268 268 267 267 268 268 268 269 270 270 271 272 272 273 273 274 275 276 276 276 277 278 278 281 284 283 281 282 284 284 283 284 285 286 287 289 292 293 291 289 288 289 291 292 293 295 297 298 297 298 298 297 296 295 293 291 290 289 288 287 286
252 253 254 255 256 257 258 259 259 260 260 261 262 262 262 262 262 262 263 263 264 265 265 266 266 267 268 268 268 267 267 267 268 268 269 270 271 272 272 273 274 275 276 277 277 276 277 278 278 280 284 283 281 281 283 284 285 284 285 285 286 288 291 294 293 291 291 290 291 292 292 293 295 296 296 297 299 299 298 298 297 295 294 293 292 292 292 292
253 253 254 255 256 257 257 258 259 260 260 261 261 262 262 263 263 263 263 264 265 265 266 267 267 267 269 270 269 269 269 269 269 270 271 271 272 272 273 274 275 276 277 277 276 277 278 279 280 284 284 281 280 281 282 283 284 285 285 286 288 290 293 293 292 293 294 294 294 293 292 294 295 295 297 299 299 297 297 296 296 297 297 296 294 294 294 294
254 254 254 255 256 256 257 258 259 259 260 261 261 262 263 263 264 264 264 264 265 266 267 268 268 269 270 271 271 271 271 271 272 273 273 273 273 274 274 274 275 275 276 276 276 279 279 280 283 285 283 280 280 281 281 282 283 284 286 287 289 292 293 292 292 293 294 293 294 293 292 294 295 295 296 297 296 294 293 292 293 294 294 294 294 294 293 291
253 254 255 255 255 256 257 258 258 259 260 260 261 262 263 264 265 265 265 264 265 266 267 268 269 270 270 270 272 273 273 273 273 273 274 274 274 275 275 275 276 276 275 276 278 279 278 280 284 283 280 281 281 281 281 282 283 285 286 288 290 291 290 289 290 291 290 289 289 289 289 291 292 292 292 292 291 290 290 290 290 289 289 289 291 291 291 290
253 254 255 255 256 256 256 257 258 259 260 261 262 262 263 264 265 266 266 265 264 265 267 268 269 270 270 270 271 273 273 274 273 272 272 273 274 274 275 276 276 275 275 275 276 275 277 280 280 278 278 280 280 281 282 282 283 284 285 287 288 288 287 287 288 287 287 287 287 287 288 289 290 290 291 291 290 290 290 289 287 286 286 287 288 288 288 288
253 254 255 255 256 257 257 258 258 259 260 261 262 263 264 264 265 266 266 266 265 264 266 268 269 269 270 271 271 272 274 274 274 273 272 272 272 273 274 275 275 274 274 273 273 274 277 278 276 275 276 277 279 281 282 282 282 283 285 286 286 286 286 287 287 286 285 285 286 288 289 289 289 289 290 290 291 292 292 290 289 289 289 290 290 289 289 289
254 255 255 256 257 257 258 259 259 259 260 261 262 264 265 265 266 266 267 267 266 264 264 266 269 269 270 272 273 274 274 274 274 274 273 272 272 272 273 272 273 273 272 271 272 274 276 276 275 277 277 278 279 280 281 281 282 283 283 284 284 285 285 285 285 286 285 284 286 287 289 292 292 292 293 293 293 294 294 293 293 294 295 296 296 295 295 295
255 256 257 257 257 257 258 258 259 259 260 261 263 264 266 267 267 267 268 268 267 266 265 264 266 268 270 273 275 275 275 275 275 274 273 272 271 271 271 271 272 272 271 271 273 274 275 275 276 277 279 280 281 281 281 281 282 281 280 281 282 283 283 283 284 285 286 287 288 288 291 294 295 296 298 297 296 297 297 297 298 300 301 301 300 300 300 299
256 257 258 258 258 257 257 257 258 259 261 262 263 265 267 268 269 269 269 269 268 267 265 264 265 267 271 273 275 275 276 276 276 274 272 271 270 270 271 271 271 271 271 272 273 274 274 274 275 276 277 279 280 280 280 281 282 281 279 280 280 280 280 281 282 283 285 287 288 290 293 294 294 297 298 297 299 301 301 301 302 302 302 301 301 300 300 298
258 258 259 259 258 257 257 257 258 259 261 263 264 266 268 269 270 270 269 269 269 268 267 267 267 268 271 272 273 274 276 276 276 274 273 272 271 270 270 270 269 269 271 271 272 273 273 273 274 275 276 277 277 278 279 280 281 280 280 279 278 277 277 278 279 281 283 286 288 292 293 292 293 296 297 297 301 302 302 304 304 303 301 300 299 298 297 296
258 259 259 259 258 257 257 257 257 259 260 262 264 266 269 270 270 269 267 266 267 269 270 271 271 272 272 272 271 272 273 273 273 273 271 270 270 270 269 269 269 268 269 269 270 271 272 273 274 275 276 276 276 278 279 279 279 280 279 278 278 278 278 279 280 282 284 286 291 294 291 291 294 296 297 299 301 302 303 303 302 300 300 299 298 297 297 296
256 257 257 257 258 258 257 257 257 258 260 262 264 267 268 268 267 267 265 264 266 270 273 273 274 274 273 272 270 268 269 270 270 270 269 268 268 268 267 268 268 268 269 269 269 270 272 273 274 276 277 278 280 280 279 279 279 280 279 278 279 280 281 282 283 285 286 289 294 293 291 292 294 295 297 299 300 301 301 299 297 297 297 296 297 297 297 297
254 253 253 255 256 257 257 256 257 258 260 262 264 266 266 265 265 263 263 265 268 270 272 273 273 273 272 270 269 268 268 268 268 268 268 268 267 267 268 268 269 269 269 269 270 271 274 275 277 278 280 282 283 283 283 283 283 282 281 281 281 282 283 284 285 288 289 291 292 291 290 292 292 293 295 296 298 298 296 295 295 295 295 296 296 296 295 294
248 249 250 251 253 254 255 254 255 256 258 260 261 262 263 263 262 261 263 266 268 269 270 272 272 270 268 267 268 269 268 268 268 267 267 268 268 269 269 268 269 269 270 271 272 273 275 277 280 282 284 285 285 287 287 286 285 284 284 284 283 284 285 285 288 289 289 289 289 289 289 289 289 291 293 293 294 293 292 292 293 293 294 294 293 292 291 291
244 246 248 250 251 253 255 253 253 255 257 258 259 260 263 262 259 260 262 264 267 269 269 268 268 267 266 267 268 268 268 268 269 269 269 269 269 268 268 268 269 270 271 272 273 274 276 278 281 283 286 287 288 288 287 285 284 283 283 283 283 284 286 287 289 288 286 287 287 287 286 286 288 290 290 290 289 288 289 289 289 289 289 288 287 286 286 286
246 247 247 249 251 253 254 253 254 256 256 257 257 258 260 261 261 262 264 266 267 267 266 265 266 266 266 268 270 269 270 270 271 271 272 271 270 269 269 269 269 270 272 273 274 276 277 278 281 283 285 287 287 285 283 282 282 282 281 281 282 284 286 286 285 284 284 284 285 285 284 285 288 289 288 288 286 286 286 286 285 285 284 283 283 283 283 282
246 245 243 246 252 254 255 255 256 256 255 254 253 253 256 260 264 267 270 271 269 268 268 268 269 269 270 272 274 274 275 275 276 275 274 274 273 272 272 272 273 274 275 275 276 277 278 278 280 282 283 283 282 280 279 280 279 278 278 279 281 283 282 281 281 281 282 282 282 283 284 285 287 286 286 285 284 285 285 284 284 283 282 282 281 281 281 280
243 239 236 241 248 251 252 253 253 252 251 249 249 252 256 259 263 266 268 268 268 269 271 272 273 273 274 277 278 279 278 278 277 276 276 275 274 274 274 275 275 275 276 276 277 276 277 278 279 280 279 278 277 276 276 276 275 275 276 277 279 279 278 278 279 279 279 278 280 282 282 283 284 284 284 284 284 284 284 283 282 281 281 280 279 279 279 278
238 233 232 236 239 241 243 244 244 244 244 243 244 250 254 254 256 258 260 261 263 265 268 270 271 271 272 274 275 275 275 274 274 274 273 273 273 274 273 272 272 273 273 273 273 274 276 277 278 278 277 276 275 275 275 273 272 273 274 275 275 275 276 278 278 279 279 278 279 281 281 282 283 283 284 283 282 282 281 281 280 279 279 279 279 279 278 278
232 231 233 235 235 235 235 236 237 240 240 240 241 245 248 248 250 251 254 257 258 260 262 265 267 267 268 270 271 270 269 270 271 270 270 270 270 271 271 270 270 271 271 271 272 274 276 277 278 279 278 277 277 276 274 273 272 272 273 273 273 275 277 278 279 280 280 279 280 281 281 282 283 283 283 281 279 278 278 277 276 276 276 277 278 278 278 279
237 239 239 238 237 237 236 237 239 240 240 241 243 244 244 246 248 250 254 255 255 256 257 258 260 262 263 265 266 266 266 267 268 269 269 269 270 270 270 269 270 271 270 271 272 275 276 277 278 279 279 278 278 277 277 275 273 272 272 273 275 277 279 280 279 280 280 279 280 281 281 282 283 282 280 278 276 275 273 273 274 275 276 276 276 276 276 276
247 248 247 244 243 243 244 244 246 246 245 245 246 246 247 247 249 252 255 255 255 256 257 257 258 259 261 262 262 263 265 268 270 271 272 272 272 271 271 272 272 271 270 272 274 276 277 278 278 279 279 278 278 278 277 274 271 270 272 274 277 279 280 280 279 279 280 280 280 280 279 281 283 280 278 276 275 273 272 272 274 275 275 274 274 274 274 274
247 248 249 249 247 247 248 248 249 251 251 250 250 250 250 250 251 253 255 255 256 257 257 258 258 259 261 262 264 266 269 270 272 272 271 271 272 273 274 274 273 271 272 275 278 279 280 280 280 280 280 280 279 277 275 272 270 270 272 275 277 279 279 279 279 279 280 279 279 279 277 279 284 281 278 276 275 274 274 274 274 273 272 271 271 272 273 273
247 248 249 250 249 247 248 250 252 254 254 254 253 253 253 253 253 253 254 254 255 256 257 258 260 261 262 263 265 268 269 270 270 270 270 271 273 275 275 273 273 273 275 278 280 280 280 279 279 279 280 279 276 275 274 272 271 272 273 275 277 277 277 278 278 278 277 276 277 276 275 280 284 281 277 277 277 276 275 274 273 271 270 270 271 272 272 272
249 250 249 249 249 248 247 248 250 253 255 256 255 254 253 254 254 253 253 253 254 255 256 257 259 261 262 263 264 265 266 266 266 266 268 270 271 270 270 271 273 275 277 279 280 279 277 276 276 277 277 275 273 272 272 272 273 274 274 275 274 275 276 275 275 276 274 273 275 274 274 279 283 279 277 277 276 275 274 273 272 271 270 270 271 272 271 270
249 250 248 247 247 248 247 247 248 248 250 252 253 252 251 252 254 255 254 253 253 253 254 255 257 259 261 262 263 263 264 263 262 260 260 261 262 262 264 266 269 271 274 276 276 275 273 273 274 276 275 274 273 273 272 273 274 273 272 273 273 274 274 274 275 275 274 274 274 272 274 279 282 280 278 276 274 273 272 272 272 272 271 271 271 270 270 270
247 247 246 245 245 246 247 248 248 245 243 242 243 245 246 248 251 253 253 253 253 253 254 255 256 258 261 262 262 263 263 263 263 262 261 260 260 260 262 264 265 266 268 270 270 271 271 271 272 273 274 274 275 274 273 273 272 272 272 273 274 275 276 276 276 274 273 274 273 273 277 280 281 280 279 277 275 274 273 272 271 270 270 270 270 270 270 270
245 245 246 246 246 247 247 247 247 246 245 243 241 242 245 247 250 251 253 255 256 256 256 256 257 258 260 261 262 262 262 263 264 264 265 265 264 264 264 265 266 266 267 268 268 268 268 269 270 271 272 273 274 272 271 271 271 271 272 273 275 276 276 277 275 273 273 274 274 277 281 279 278 279 279 277 276 275 273 272 271 270 270 270 271 272 273 273
244 244 245 245 246 246 246 247 247 247 247 247 246 246 247 249 250 251 253 255 256 257 259 258 258 258 259 260 261 261 261 262 263 264 265 265 266 266 266 267 268 268 268 268 268 268 267 268 269 269 270 271 271 270 270 272 272 272 272 273 274 275 275 275 273 272 274 274 276 279 279 276 276 278 278 277 277 275 274 274 273 273 273 274 274 275 275 275
246 245 245 245 246 247 247 247 248 248 248 248 249 249 248 249 250 252 253 255 256 257 259 259 259 259 260 260 260 261 261 262 263 264 265 266 266 267 268 268 269 269 270 269 269 268 267 268 269 268 268 269 269 269 270 272 272 272 273 274 275 275 273 272 271 274 276 275 277 279 277 275 276 277 275 276 277 276 275 275 275 277 277 278 277 277 277 277
248 248 248 248 248 248 249 249 249 249 249 249 250 251 252 252 252 254 255 257 257 258 259 261 261 261 261 260 260 261 261 263 264 265 266 266 266 266 267 268 268 269 270 269 269 268 267 268 268 268 268 268 268 268 270 270 270 271 272 274 275 273 271 271 274 276 276 275 277 278 276 275 276 277 277 276 276 277 277 277 278 279 280 280 279 279 279 279
251 250 251 251 250 249 249 250 250 250 250 251 252 254 255 255 256 257 258 258 259 259 260 261 261 260 260 261 261 262 263 264 265 266 266 266 266 267 267 267 268 269 269 268 268 268 268 268 268 268 267 267 268 268 269 269 269 270 272 274 274 273 272 274 276 276 275 275 277 277 276 276 277 278 278 276 276 277 279 279 280 279 279 279 279 279 279 279
251 251 252 252 252 251 250 250 250 251 251 252 254 255 256 258 259 259 259 259 259 259 259 259 260 260 260 261 263 265 266 266 267 267 267 267 267 267 267 267 268 268 269 268 268 268 269 269 269 269 267 267 268 267 267 268 268 268 272 276 276 274 275 275 274 273 274 276 277 276 277 278 279 277 276 276 277 278 278 279 279 279 278 278 278 279 279 279
251 251 252 252 252 252 252 251 251 252 252 254 255 256 257 258 258 258 258 258 258 258 259 259 260 261 262 263 265 266 265 265 265 265 265 266 267 267 268 269 269 269 269 269 268 269 269 269 269 268 268 268 268 267 267 267 266 269 276 279 276 274 274 272 271 273 275 276 276 276 277 279 278 277 276 277 278 278 278 279 279 279 279 280 280 280 280 281
Height
5872 5872 5873 5874 5874 5875 5875 5876 5876 5877 5877 5877 5878 5878 5878 5879 5879 5879 5879 5879 5880 5880 5880 5880 5880 5880 5880 5880 5880 5880 5880 5880 5880 5880 5881 5881 5880 5880 5881 5881 5881 5881 5881 5881 5881 5881 5881 5880 5880 5880 5879 5879 5878 5878 5877 5877 5877 5877 5876 5875 5873 5873 5873 5872 5871 5871 5871 5870 5870 5870 5870 5870 5869 5869 5869 5868 5867 5866 5863 5861 5862 5862 5860 5859 5858 5859 5858 5858
5869 5870 5870 5871 5872 5872 5873 5873 5874 5874 5875 5875 5876 5876 5876 5877 5877 5877 5877 5878 5878 5878 5878 5878 5878 5878 5878 5878 5878 5878 5878 5878 5879 5879 5879 5879 5879 5879 5879 5879 5879 5879 5879 5879 5879 5879 5879 5879 5878 5878 5878 5877 5877 5876 5875 5875 5875 5875 5874 5873 5871 5871 5871 5870 5869 5869 5869 5868 5867 5867 5867 5867 5866 5867 5867 5866 5865 5864 5862 5860 5861 5861 5858 5857 5856 5856 5856 5856
5866 5867 5868 5868 5869 5870 5870 5871 5871 5872 5872 5873 5873 5874 5874 5875 5875 5875 5875 5876 5876 5876 5876 5877 5877 5877 5877 5877 5877 5877 5877 5876 5877 5877 5877 5877 5877 5877 5877 5877 5877 5877 5877 5877 5877 5877 5877 5877 5876 5876 5875 5875 5875 5874 5873 5873 5873 5872 5871 5870 5870 5870 5869 5868 5867 5866 5866 5866 5865 5864 5865 5864 5864 5864 5864 5864 5864 5861 5859 5860 5860 5859 5857 5855 5854 5853 5854 5853
5863 5864 5865 5865 5866 5867 5867 5868 5869 5869 5870 5870 5871 5871 5872 5872 5873 5873 5873 5873 5874 5874 5874 5875 5875 5875 5875 5875 5875 5875 5875 5874 5875 5875 5875 5875 5875 5875 5875 5875 5875 5875 5875 5874 5875 5874 5874 5874 5874 5873 5873 5872 5872 5871 5870 5870 5871 5870 5869 5868 5868 5868 5867 5866 5865 5864 5864 5864 5863 5863 5863 5863 5862 5861 5861 5862 5862 5860 5858 5858 5858 5857 5856 5854 5853 5851 5850 5850
5859 5860 5861 5862 5863 5864 5864 5865 5866 5866 5867 5867 5868 5868 5869 5869 5870 5870 5871 5871 5871 5872 5872 5872 5873 5873 5873 5873 5873 5873 5873 5872 5872 5873 5873 5873 5873 5873 5873 5873 5873 5872 5872 5872 5872 5872 5872 5872 5871 5871 5870 5869 5869 5868 5868 5868 5868 5867 5866 5866 5866 5866 5865 5863 5863 5862 5862 5861 5861 5861 5862 5861 5860 5859 5858 5858 5859 5859 5857 5855 5855 5855 5854 5853 5852 5850 5848 5847
5856 5857 5858 5859 5859 5860 5861 5862 5862 5863 5864 5864 5865 5865 5866 5866 5867 5867 5868 5868 5869 5869 5870 5870 5870 5871 5871 5871 5871 5871 5870 5870 5871 5870 5870 5871 5871 5870 5870 5870 5870 5870 5870 5869 5869 5869 5869 5869 5868 5868 5868 5866 5866 5865 5865 5865 5865 5865 5864 5864 5864 5864 5864 5862 5861 5860 5859 5859 5859 5860 5860 5859 5858 5858 5857 5856 5856 5856 5855 5854 5852 5852 5852 5851 5849 5847 5845 5844
5852 5853 5854 5855 5856 5857 5858 5858 5859 5860 5860 5861 5861 5862 5863 5863 5864 5864 5865 5865 5866 5866 5867 5867 5868 5868 5869 5869 5869 5869 5867 5867 5868 5868 5868 5868 5868 5868 5868 5867 5867 5867 5867 5866 5866 5866 5865 5865 5865 5865 5865 5863 5863 5862 5862 5862 5863 5863 5863 5862 5863 5862 5861 5860 5859 5858 5856 5857 5858 5858 5858 5857 5856 5857 5856 5853 5853 5854 5853 5852 5850 5850 5848 5846 5845 5843 5842 5841
5849 5849 5850 5851 5852 5853 5854 5855 5856 5856 5857 5858 5858 5859 5860 5860 5861 5861 5862 5863 5863 5863 5864 5865 5865 5865 5866 5866 5866 5866 5864 5863 5865 5865 5865 5865 5865 5865 5864 5864 5864 5863 5863 5863 5862 5862 5862 5862 5861 5861 5861 5860 5860 5860 5859 5859 5860 5860 5861 5860 5860 5859 5859 5858 5856 5855 5855 5855 5855 5855 5856 5854 5853 5855 5854 5852 5852 5852 5851 5850 5848 5847 5845 5842 5840 5838 5838 5839
5845 5846 5847 5848 5849 5850 5851 5852 5852 5853 5854 5854 5855 5856 5856 5857 5858 5858 5859 5859 5860 5860 5861 5861 5861 5862 5862 5863 5863 5862 5860 5861 5861 5861 5861 5861 5861 5861 5861 5861 5860 5860 5859 5859 5859 5859 5858 5858 5858 5858 5858 5858 5858 5857 5856 5857 5857 5857 5858 5858 5857 5856 5856 5854 5853 5852 5852 5853 5851 5852 5854 5851 5850 5852 5852 5850 5850 5850 5849 5848 5846 5845 5843 5839 5835 5834 5835 5836
5841 5842 5843 5844 5845 5846 5847 5848 5849 5849 5850 5851 5851 5852 5853 5853 5854 5855 5855 5856 5856 5856 5857 5858 5858 5858 5859 5859 5860 5859 5857 5858 5858 5857 5858 5857 5858 5858 5858 5857 5857 5857 5856 5856 5856 5856 5855 5854 5855 5855 5855 5856 5856 5854 5854 5854 5855 5855 5854 5855 5854 5853 5853 5850 5849 5849 5849 5849 5848 5848 5850 5849 5847 5849 5849 5847 5846 5846 5847 5845 5843 5841 5839 5836 5834 5833 5832 5833
5837 5838 5839 5841 5842 5843 5844 5844 5845 5846 5846 5847 5848 5848 5849 5850 5850 5851 5851 5852 5852 5852 5853 5854 5854 5854 5855 5855 5856 5856 5854 5855 5854 5854 5854 5854 5855 5854 5854 5854 5854 5853 5853 5853 5853 5853 5852 5851 5852 5852 5852 5853 5853 5852 5852 5852 5852 5852 5851 5851 5851 5850 5850 5847 5845 5847 5846 5846 5844 5843 5845 5846 5844 5845 5846 5845 5843 5843 5843 5842 5840 5836 5834 5833 5833 5832 5831 5831
5833 5834 5835 5836 5838 5839 5839 5840 5841 5842 5842 5843 5844 5844 5845 5845 5846 5846 5847 5847 5848 5848 5849 5849 5850 5850 5851 5852 5853 5852 5852 5852 5851 5851 5850 5850 5851 5851 5851 5851 5850 5850 5850 5850 5850 5850 5849 5849 5849 5849 5849 5850 5850 5849 5848 5848 5848 5848 5847 5847 5848 5847 5846 5845 5842 5843 5843 5842 5841 5838 5839 5842 5842 5841 5842 5842 5841 5839 5839 5838 5835 5832 5831 5830 5830 5829 5829 5830
5829 5830 5831 5832 5834 5834 5835 5836 5836 5837 5838 5839 5839 5840 5841 5841 5842 5842 5843 5843 5843 5844 5845 5845 5846 5846 5847 5849 5849 5848 5849 5849 5848 5847 5847 5847 5847 5847 5848 5847 5847 5847 5847 5847 5846 5846 5846 5846 5845 5845 5846 5846 5846 5846 5845 5845 5844 5844 5843 5842 5843 5843 5844 5843 5840 5839 5839 5838 5837 5834 5833 5837 5840 5839 5838 5838 5838 5836 5835 5834 5831 5829 5828 5827 5827 5828 5828 5827
5824 5826 5827 5828 5829 5830 5831 5832 5832 5833 5834 5834 5835 5835 5836 5837 5838 5838 5838 5839 5839 5840 5840 5841 5842 5842 5843 5845 5845 5844 5845 5845 5845 5844 5844 5843 5843 5843 5843 5844 5844 5843 5843 5843 5843 5843 5843 5842 5842 5841 5842 5842 5842 5842 5841 5841 5840 5840 5838 5837 5837 5838 5840 5841 5838 5836 5835 5834 5833 5831 5829 5831 5836 5837 5836 5835 5833 5832 5831 5830 5828 5826 5826 5826 5826 5826 5825 5824
5820 5821 5822 5823 5824 5825 5826 5827 5828 5829 5829 5830 5830 5831 5832 5833 5833 5834 5834 5835 5835 5835 5836 5837 5837 5838 5839 5841 5841 5841 5841 5841 5841 5840 5840 5840 5839 5839 5839 5840 5840 5840 5839 5839 5839 5839 5839 5838 5838 5837 5838 5838 5838 5838 5837 5837 5837 5836 5833 5832 5832 5832 5835 5837 5837 5834 5832 5830 5829 5827 5826 5827 5831 5832 5832 5832 5829 5827 5827 5825 5824 5824 5824 5824 5824 5823 5821 5820
5815 5816 5817 5819 5820 5821 5822 5823 5824 5824 5825 5825 5826 5827 5827 5828 5829 5829 5829 5830 5831 5831 5832 5832 5833 5833 5834 5836 5836 5837 5837 5836 5836 5836 5836 5836 5836 5836 5836 5836 5836 5836 5836 5836 5835 5835 5834 5834 5834 5833 5834 5834 5835 5834 5833 5832 5833 5832 5829 5828 5828 5828 5828 5831 5833 5832 5829 5826 5824 5823 5822 5824 5826 5826 5827 5827 5825 5824 5823 5821 5821 5821 5821 5820 5819 5818 5817 5816
5810 5811 5813 5814 5815 5816 5817 5818 5819 5819 5820 5821 5821 5822 5823 5823 5824 5824 5825 5825 5826 5826 5827 5827 5828 5828 5829 5831 5832 5832 5832 5832 5832 5832 5832 5832 5832 5832 5832 5832 5831 5831 5832 5832 5831 5831 5830 5829 5830 5830 5830 5831 5831 5829 5827 5827 5828 5827 5825 5824 5824 5824 5824 5825 5828 5828 5826 5823 5821 5820 5819 5820 5821 5821 5821 5820 5819 5819 5818 5817 5818 5817 5816 5815 5814 5813 5813 5812
5806 5807 5808 5809 5810 5811 5812 5813 5814 5815 5815 5816 5817 5817 5818 5818 5819 5820 5820 5821 5821 5822 5822 5823 5824 5824 5825 5826 5827 5827 5828 5828 5828 5828 5828 5828 5828 5828 5828 5827 5827 5827 5827 5827 5827 5826 5825 5825 5825 5825 5827 5828 5826 5824 5822 5823 5823 5822 5821 5820 5820 5820 5820 5821 5822 5821 5821 5820 5818 5817 5816 5815 5815 5816 5816 5814 5813 5813 5812 5812 5812 5811 5810 5809 5808 5808 5807 5807
5801 5802 5803 5804 5805 5806 5807 5808 5809 5810 5811 5812 5812 5813 5813 5814 5814 5815 5815 5816 5817 5817 5817 5818 5819 5819 5820 5821 5822 5822 5823 5824 5824 5824 5824 5823 5824 5823 5823 5823 5823 5823 5823 5823 5822 5821 5821 5820 5820 5822 5824 5823 5820 5819 5818 5818 5817 5817 5816 5816 5815 5816 5816 5817 5816 5815 5815 5814 5814 5814 5812 5811 5812 5812 5811 5810 5809 5808 5806 5805 5805 5804 5804 5804 5803 5802 5801 5801
5796 5797 5798 5799 5800 5801 5802 5803 5805 5806 5806 5807 5808 5808 5809 5809 5810 5810 5811 5812 5812 5813 5813 5814 5815 5815 5815 5816 5816 5817 5818 5819 5819 5820 5820 5819 5819 5819 5819 5819 5819 5819 5819 5818 5816 5816 5817 5815 5816 5819 5820 5817 5815 5815 5815 5814 5813 5812 5812 5811 5811 5811 5812 5812 5810 5809 5808 5807 5808 5808 5807 5808 5808 5807 5807 5806 5805 5804 5803 5801 5799 5799 5798 5798 5797 5797 5796 5796
5791 5792 5793 5794 5796 5797 5798 5799 5800 5801 5802 5802 5803 5803 5804 5804 5805 5805 5806 5807 5808 5808 5808 5809 5809 5811 5811 5811 5810 5811 5812 5813 5814 5815 5815 5815 5815 5814 5814 5814 5814 5815 5814 5813 5812 5813 5812 5811 5813 5815 5813 5811 5811 5811 5811 5810 5809 5808 5807 5807 5807 5807 5807 5807 5806 5805 5804 5803 5803 5803 5803 5803 5803 5802 5803 5802 5800 5800 5800 5798 5797 5796 5795 5793 5792 5792 5792 5792
5786 5787 5788 5789 5790 5791 5793 5794 5795 5796 5797 5797 5798 5799 5799 5799 5800 5800 5801 5802 5804 5804 5803 5804 5804 5806 5807 5806 5805 5806 5807 5808 5810 5810 5810 5810 5810 5810 5809 5809 5810 5810 5809 5808 5809 5808 5806 5807 5810 5809 5807 5806 5806 5806 5806 5806 5805 5804 5803 5802 5803 5803 5802 5802 5802 5801 5800 5800 5799 5799 5799 5799 5798 5798 5799 5798 5797 5796 5795 5795 5794 5793 5792 5790 5790 5789 5788 5788
5780 5782 5783 5784 5785 5786 5787 5789 5790 5791 5792 5792 5793 5794 5794 5795 5795 5795 5795 5796 5799 5800 5799 5800 5800 5800 5801 5801 5801 5801 5801 5803 5804 5805 5806 5806 5806 5805 5805 5805 5805 5805 5805 5805 5805 5802 5802 5805 5805 5803 5802 5802 5801 5801 5802 5801 5801 5800 5799 5799 5799 5799 5798 5798 5798 5798 5796 5795 5794 5794 5795 5795 5794 5794 5794 5793 5792 5791 5791 5791 5790 5788 5788 5787 5786 5785 5785 5784
5775 5776 5777 5778 5779 5781 5782 5784 5785 5786 5787 5787 5788 5788 5789 5790 5790 5790 5790 5790 5792 5796 5796 5795 5795 5795 5795 5796 5796 5797 5797 5798 5799 5799 5801 5801 5800 5800 5801 5800 5800 5800 5801 5800 5799 5798 5799 5801 5799 5798 5798 5798 5797 5797 5797 5797 5796 5796 5796 5795 5795 5794 5794 5793 5793 5793 5792 5791 5790 5789 5788 5789 5790 5789 5790 5788 5787 5786 5785 5784 5784 5783 5782 5782 5781 5780 5780 5779
5769 5770 5771 5772 5773 5775 5777 5778 5779 5780 5781 5782 5783 5783 5784 5784 5785 5785 5785 5783 5784 5790 5792 5791 5789 5788 5790 5790 5791 5792 5792 5793 5794 5794 5794 5794 5794 5795 5796 5795 5795 5795 5796 5795 5794 5795 5796 5796 5794 5793 5794 5793 5793 5793 5792 5792 5792 5792 5792 5791 5791 5790 5790 5789 5788 5787 5787 5786 5786 5785 5783 5782 5782 5782 5784 5783 5781 5781 5779 5777 5777 5776 5776 5775 5774 5773 5773 5772
5763 5764 5765 5766 5768 5770 5771 5772 5774 5775 5775 5776 5777 5778 5778 5778 5779 5779 5780 5778 5776 5782 5786 5786 5785 5783 5785 5786 5786 5787 5786 5787 5789 5788 5788 5789 5789 5789 5789 5789 5790 5790 5790 5790 5790 5791 5791 5791 5790 5790 5789 5789 5789 5788 5788 5787 5788 5788 5788 5787 5786 5786 5785 5784 5783 5782 5780 5780 5780 5780 5778 5777 5775 5775 5776 5775 5774 5774 5773 5772 5771 5770 5769 5768 5767 5766 5766 5765
5756 5758 5759 5760 5762 5764 5765 5766 5768 5769 5769 5770 5770 5771 5772 5772 5773 5773 5774 5771 5769 5773 5777 5779 5780 5780 5781 5782 5781 5781 5781 5781 5783 5782 5782 5783 5783 5784 5783 5784 5785 5784 5784 5785 5785 5786 5786 5785 5785 5785 5785 5785 5784 5784 5783 5783 5783 5783 5783 5782 5782 5781 5780 5779 5778 5776 5775 5775 5774 5774 5774 5771 5770 5771 5768 5767 5768 5767 5767 5766 5765 5764 5763 5761 5761 5761 5760 5760
5749 5750 5751 5753 5755 5757 5759 5760 5762 5762 5762 5763 5764 5765 5765 5765 5766 5767 5769 5765 5762 5764 5768 5771 5774 5775 5776 5777 5776 5776 5775 5776 5776 5776 5777 5777 5777 5778 5778 5778 5779 5779 5779 5780 5779 5780 5780 5780 5780 5780 5780 5780 5779 5779 5778 5778 5777 5777 5777 5776 5776 5775 5774 5774 5773 5772 5771 5770 5769 5770 5770 5766 5765 5766 5762 5760 5762 5761 5760 5759 5758 5757 5756 5756 5755 5755 5755 5755
5742 5743 5744 5745 5747 5750 5752 5754 5755 5756 5756 5757 5758 5758 5758 5759 5760 5761 5761 5759 5755 5756 5760 5764 5766 5768 5770 5771 5771 5771 5770 5770 5770 5771 5771 5772 5772 5773 5772 5773 5773 5773 5774 5774 5774 5774 5774 5774 5774 5774 5774 5774 5774 5774 5774 5773 5772 5772 5771 5770 5769 5769 5768 5768 5767 5767 5766 5765 5766 5766 5764 5760 5760 5761 5757 5755 5756 5755 5754 5754 5752 5751 5750 5750 5749 5749 5749 5749
5735 5736 5737 5738 5741 5744 5746 5747 5748 5749 5750 5751 5751 5752 5752 5752 5754 5755 5752 5750 5751 5753 5755 5757 5759 5760 5762 5763 5764 5764 5765 5765 5765 5766 5766 5766 5767 5767 5767 5767 5767 5767 5768 5768 5769 5769 5769 5769 5769 5769 5769 5769 5769 5769 5768 5768 5767 5767 5765 5764 5763 5763 5763 5762 5761 5762 5760 5760 5762 5761 5757 5756 5756 5756 5753 5751 5751 5750 5749 5748 5747 5746 5745 5744 5743 5742 5742 5741
5728 5729 5730 5732 5734 5736 5738 5740 5742 5742 5743 5745 5745 5745 5745 5746 5748 5746 5743 5745 5749 5750 5750 5751 5752 5754 5754 5755 5756 5757 5758 5759 5759 5760 5760 5760 5761 5761 5761 5761 5762 5762 5762 5763 5764 5763 5763 5763 5764 5764 5763 5763 5763 5762 5762 5762 5761 5760 5759 5759 5758 5757 5757 5756 5756 5756 5755 5755 5756 5754 5752 5751 5751 5752 5750 5748 5747 5745 5743 5742 5741 5741 5740 5739 5738 5737 5735 5734
5721 5723 5724 5726 5728 5729 5731 5734 5735 5736 5737 5738 5738 5738 5739 5740 5739 5736 5738 5744 5745 5745 5746 5746 5746 5747 5748 5749 5750 5750 5751 5752 5753 5754 5754 5754 5755 5755 5756 5756 5756 5757 5757 5758 5758 5757 5757 5757 5758 5757 5757 5757 5757 5756 5756 5756 5755 5754 5754 5753 5752 5751 5750 5750 5751 5750 5749 5750 5749 5747 5746 5745 5747 5748 5746 5744 5743 5740 5738 5737 5736 5735 5734 5734 5732 5730 5729 5728
5716 5717 5719 5721 5722 5723 5726 5727 5728 5730 5731 5732 5732 5732 5733 5732 5731 5731 5735 5740 5740 5739 5741 5741 5740 5741 5742 5743 5744 5745 5746 5746 5747 5747 5748 5748 5749 5749 5750 5750 5751 5751 5751 5752 5751 5751 5751 5752 5752 5751 5751 5751 5751 5751 5750 5749 5749 5749 5749 5748 5746 5745 5744 5744 5745 5743 5742 5744 5743 5741 5740 5739 5742 5743 5741 5740 5738 5735 5734 5733 5731 5731 5729 5728 5726 5724 5723 5722
5711 5712 5713 5715 5717 5718 5720 5721 5722 5724 5725 5725 5726 5727 5725 5723 5723 5727 5731 5734 5735 5734 5734 5735 5735 5736 5737 5738 5739 5739 5740 5740 5741 5741 5742 5742 5743 5743 5744 5745 5745 5745 5745 5745 5745 5745 5746 5746 5746 5746 5746 5746 5745 5745 5744 5744 5743 5743 5743 5741 5740 5741 5739 5737 5738 5735 5735 5738 5738 5735 5732 5733 5737 5738 5735 5734 5732 5730 5729 5728 5726 5725 5723 5721 5719 5718 5717 5716
5706 5707 5708 5709 5710 5713 5715 5715 5717 5718 5718 5719 5720 5720 5719 5718 5719 5723 5725 5727 5727 5726 5727 5728 5729 5730 5730 5732 5733 5733 5734 5734 5735 5735 5735 5736 5737 5738 5738 5738 5738 5738 5738 5738 5739 5739 5739 5739 5741 5741 5740 5740 5740 5739 5739 5739 5738 5737 5737 5735 5735 5736 5734 5730 5730 5730 5729 5729 5731 5730 5726 5727 5731 5731 5730 5727 5725 5725 5723 5721 5720 5717 5715 5714 5712 5711 5710 5708
5700 5702 5703 5704 5705 5707 5708 5710 5712 5712 5712 5713 5713 5714 5716 5717 5717 5719 5720 5720 5720 5720 5721 5722 5723 5723 5724 5725 5726 5727 5728 5728 5729 5728 5729 5730 5730 5731 5732 5732 5732 5732 5732 5733 5732 5733 5733 5733 5735 5735 5735 5735 5734 5733 5733 5733 5731 5730 5730 5730 5730 5729 5727 5724 5722 5724 5723 5720 5724 5726 5722 5721 5723 5724 5724 5722 5720 5719 5716 5714 5712 5709 5708 5706 5704 5703 5702 5701
5694 5696 5697 5699 5700 5701 5703 5704 5705 5705 5705 5705 5706 5709 5712 5713 5713 5713 5714 5715 5715 5716 5716 5716 5717 5718 5719 5720 5721 5722 5722 5722 5723 5722 5723 5723 5723 5725 5727 5726 5727 5727 5727 5727 5726 5727 5727 5727 5728 5728 5727 5727 5727 5727 5726 5726 5724 5723 5724 5724 5723 5721 5720 5719 5716 5716 5715 5711 5714 5719 5718 5715 5715 5716 5717 5717 5714 5713 5709 5707 5705 5702 5701 5699 5697 5696 5694 5693
5687 5688 5690 5692 5694 5695 5696 5696 5696 5697 5697 5697 5701 5705 5706 5706 5707 5707 5708 5710 5710 5710 5711 5712 5713 5713 5714 5715 5716 5717 5716 5716 5717 5717 5717 5718 5718 5720 5721 5721 5721 5722 5722 5721 5719 5720 5721 5719 5720 5720 5719 5719 5720 5719 5718 5718 5718 5718 5716 5716 5716 5714 5713 5713 5710 5708 5707 5703 5703 5709 5711 5711 5709 5708 5710 5709 5708 5707 5704 5700 5698 5696 5694 5693 5691 5689 5687 5686
5679 5680 5682 5685 5687 5688 5689 5688 5688 5688 5688 5691 5697 5700 5700 5702 5703 5702 5703 5704 5704 5704 5705 5707 5708 5708 5709 5710 5711 5711 5710 5710 5711 5711 5711 5712 5712 5713 5714 5714 5715 5716 5715 5714 5713 5713 5713 5712 5713 5713 5712 5711 5711 5711 5712 5712 5711 5710 5708 5708 5708 5708 5707 5706 5703 5701 5699 5695 5694 5697 5701 5705 5705 5702 5700 5699 5700 5700 5697 5693 5691 5690 5688 5686 5684 5683 5681 5679
5672 5673 5675 5678 5680 5681 5682 5681 5680 5679 5680 5687 5693 5693 5694 5696 5696 5697 5697 5697 5697 5697 5699 5701 5701 5701 5703 5704 5705 5705 5704 5704 5704 5705 5705 5705 5705 5705 5707 5708 5708 5708 5707 5706 5705 5705 5705 5705 5706 5707 5705 5704 5703 5704 5705 5705 5702 5701 5701 5701 5701 5701 5699 5697 5695 5695 5693 5688 5687 5687 5688 5696 5701 5695 5691 5690 5691 5691 5689 5688 5687 5684 5682 5679 5677 5675 5673 5672
5666 5666 5668 5671 5672 5673 5674 5673 5672 5673 5676 5682 5685 5685 5686 5688 5689 5691 5691 5690 5690 5690 5691 5692 5693 5694 5696 5696 5698 5699 5697 5697 5698 5698 5698 5699 5698 5699 5700 5701 5701 5700 5700 5699 5698 5698 5697 5696 5697 5698 5697 5696 5696 5696 5697 5696 5694 5694 5695 5695 5694 5693 5692 5689 5687 5689 5687 5681 5680 5677 5675 5685 5694 5688 5682 5683 5683 5682 5681 5681 5680 5677 5674 5671 5669 5667 5666 5665
5659 5660 5662 5664 5666 5666 5666 5664 5665 5668 5670 5674 5676 5677 5678 5681 5683 5684 5683 5683 5683 5683 5684 5685 5686 5687 5688 5689 5692 5692 5690 5690 5691 5692 5693 5694 5694 5693 5693 5693 5693 5693 5693 5692 5691 5691 5690 5689 5688 5690 5691 5691 5688 5687 5688 5688 5688 5688 5688 5689 5688 5686 5685 5682 5679 5682 5681 5674 5672 5669 5664 5673 5684 5682 5676 5675 5674 5674 5673 5673 5671 5668 5666 5664 5661 5661 5659 5657
5652 5653 5656 5657 5658 5659 5659 5659 5660 5661 5663 5666 5669 5669 5671 5672 5674 5674 5675 5675 5675 5676 5678 5679 5680 5680 5681 5683 5684 5684 5684 5684 5685 5686 5687 5688 5688 5688 5687 5686 5686 5686 5685 5686 5685 5684 5684 5682 5681 5682 5684 5684 5680 5679 5679 5680 5682 5682 5682 5682 5681 5679 5679 5676 5672 5672 5670 5667 5667 5662 5656 5662 5672 5673 5671 5669 5667 5667 5665 5664 5662 5660 5658 5657 5654 5653 5651 5649
5644 5646 5648 5649 5650 5651 5652 5654 5656 5656 5658 5661 5661 5662 5664 5664 5665 5666 5666 5667 5669 5669 5671 5673 5674 5674 5675 5676 5676 5677 5677 5676 5678 5680 5681 5681 5682 5682 5681 5681 5681 5680 5679 5679 5679 5677 5677 5675 5674 5675 5675 5674 5674 5672 5671 5673 5676 5674 5674 5674 5673 5672 5671 5668 5666 5663 5658 5658 5662 5656 5650 5656 5661 5662 5663 5661 5659 5659 5658 5655 5654 5653 5650 5648 5646 5644 5643 5641
5636 5638 5639 5640 5641 5643 5645 5648 5650 5651 5653 5655 5654 5656 5656 5656 5657 5659 5658 5660 5662 5663 5664 5666 5668 5668 5668 5669 5668 5669 5670 5669 5670 5671 5673 5674 5674 5675 5675 5675 5675 5675 5674 5673 5672 5670 5670 5668 5667 5667 5665 5665 5666 5665 5664 5666 5667 5665 5665 5666 5666 5666 5663 5660 5658 5653 5648 5649 5652 5649 5647 5650 5654 5653 5652 5651 5651 5651 5649 5647 5646 5645 5642 5639 5637 5636 5635 5635
5627 5628 5630 5632 5632 5634 5638 5641 5642 5642 5646 5647 5646 5648 5650 5649 5652 5652 5651 5652 5654 5654 5656 5658 5660 5660 5660 5661 5661 5662 5663 5663 5662 5662 5664 5665 5665 5666 5667 5667 5668 5668 5667 5666 5665 5662 5661 5660 5660 5659 5657 5657 5658 5657 5656 5657 5658 5657 5657 5658 5659 5657 5656 5653 5648 5642 5641 5640 5640 5644 5644 5642 5645 5647 5642 5641 5642 5641 5640 5638 5637 5635 5634 5632 5631 5629 5628 5627
5617 5619 5623 5624 5623 5625 5631 5633 5633 5635 5638 5637 5637 5641 5644 5644 5645 5644 5643 5644 5645 5646 5647 5649 5651 5652 5653 5654 5654 5654 5656 5656 5654 5654 5655 5656 5657 5658 5659 5660 5660 5659 5659 5658 5656 5655 5652 5651 5652 5652 5650 5650 5650 5648 5647 5648 5649 5649 5649 5651 5652 5650 5647 5644 5637 5634 5636 5632 5630 5639 5639 5631 5635 5641 5636 5631 5632 5631 5630 5629 5627 5626 5625 5625 5624 5621 5619 5618
5608 5611 5614 5614 5614 5618 5622 5625 5626 5627 5628 5628 5628 5631 5635 5636 5635 5635 5636 5636 5637 5639 5639 5639 5643 5645 5645 5646 5645 5646 5648 5647 5645 5646 5646 5647 5649 5649 5650 5651 5651 5651 5651 5649 5647 5647 5644 5642 5644 5644 5642 5642 5642 5640 5640 5640 5638 5639 5641 5643 5645 5644 5638 5633 5629 5630 5631 5623 5622 5631 5630 5623 5627 5633 5629 5624 5622 5620 5621 5620 5618 5618 5618 5617 5615 5612 5610 5608
5599 5601 5604 5604 5606 5611 5615 5616 5616 5616 5618 5619 5619 5622 5626 5627 5627 5629 5629 5627 5628 5631 5631 5631 5636 5638 5637 5637 5636 5637 5640 5639 5637 5638 5639 5638 5639 5640 5641 5642 5642 5643 5642 5640 5639 5638 5636 5635 5635 5634 5633 5633 5633 5632 5633 5631 5628 5630 5634 5636 5637 5635 5629 5626 5626 5627 5622 5615 5616 5620 5617 5616 5622 5623 5619 5616 5613 5610 5610 5611 5611 5611 5609 5607 5605 5603 5601 5599
5590 5593 5594 5595 5599 5604 5606 5606 5607 5607 5610 5610 5610 5615 5618 5617 5619 5621 5620 5619 5621 5624 5624 5624 5627 5629 5627 5627 5628 5629 5632 5631 5629 5630 5630 5629 5630 5632 5632 5632 5633 5634 5634 5632 5630 5628 5627 5627 5626 5626 5624 5624 5625 5625 5624 5622 5619 5620 5625 5627 5627 5624 5622 5623 5623 5619 5613 5608 5610 5610 5604 5607 5616 5614 5608 5606 5604 5602 5602 5603 5603 5602 5600 5598 5595 5593 5592 5590
5582 5584 5586 5587 5590 5595 5596 5598 5599 5598 5600 5602 5605 5609 5609 5609 5613 5613 5610 5611 5614 5615 5615 5616 5618 5619 5618 5619 5621 5622 5624 5623 5622 5622 5621 5620 5621 5622 5622 5623 5624 5625 5625 5624 5621 5620 5619 5617 5617 5617 5614 5614 5618 5617 5615 5613 5610 5610 5616 5620 5620 5617 5617 5617 5613 5609 5606 5603 5600 5598 5595 5599 5606 5604 5598 5597 5597 5596 5595 5595 5594 5593 5591 5588 5586 5584 5582 5580
5573 5576 5578 5579 5582 5585 5587 5589 5590 5589 5593 5598 5599 5601 5601 5602 5604 5603 5600 5602 5605 5606 5607 5609 5611 5610 5609 5611 5615 5616 5615 5613 5613 5613 5611 5610 5611 5611 5612 5613 5615 5615 5616 5615 5613 5612 5611 5609 5609 5608 5604 5605 5608 5608 5608 5605 5598 5600 5610 5616 5614 5610 5607 5605 5603 5603 5601 5595 5590 5588 5589 5592 5594 5592 5589 5589 5589 5587 5587 5587 5585 5583 5581 5578 5576 5575 5572 5570